Weather History for De Queen, AR

Change the Weather History Date:

Wednesday, April 3, 2013

  Actual Average Record
Temperature  
Mean Temperature 48 °F 58 °F  
Max Temperature 53 °F 71 °F 89 °F (1940)
Min Temperature 42 °F 44 °F 25 °F (1987)
Degree Days  
Heating Degree Days 17 8  
Month to date heating degree days 37 25  
Since 1 July heating degree days 2818 2893  
Cooling Degree Days 0 1  
Month to date cooling degree days 0 3  
Year to date cooling degree days 4 14  
Moisture  
Dew Point 34 °F    
Average Humidity 66    
Maximum Humidity 89    
Minimum Humidity 42    
Precipitation  
Precipitation T in 0.10 in 1.98 in (1982)
Month to date precipitation 0.50 0.37  
Year to date precipitation 6.00 12.01  
Snow  
Snow 0.00 in - - ()
Month to date snowfall 0.0  
Since 1 July snowfall 4.5  
Snow Depth 0.00 in    
Sea Level Pressure  
Sea Level Pressure 30.12 in    
Wind  
Wind Speed 11 mph (ENE)    
Max Wind Speed 24 mph    
Max Gust Speed 32 mph    
Visibility 10 miles    
Events      
T = Trace of Precipitation, MM = Missing Value Source: NWS Daily Summary

Daily Weather History Graph

Daily Weather History Graph

Search for Another Location

Airport:

Trip Planner

Search our weather history database for the weather conditions in past years. The results will help you decide how hot, cold, wet, or windy it might be!

Date:

Astronomy

Apr. 03, 2013 Rise Set
Actual Time 7:01 AM CDT 7:40 PM CDT
Civil Twilight 6:36 AM CDT 8:05 PM CDT
Nautical Twilight 6:06 AM CDT 8:35 PM CDT
Astronomical Twilight 5:36 AM CDT 9:05 PM CDT
Moon 2:26 AM CDT (4/3) 1:09 PM CDT (4/3)
Length of Visible Light 13h 28m
Length of Day
12h 38m
Last Quarter, 44% of the Moon is Illuminated
Apr 3
Last Quarter
Apr 10
New
Apr 18
First Quarter
Apr 25
Full
May 2
Last Quarter

Hourly Weather History & Observations

Time (CDT) Temp. Windchill Dew Point Humidity Pressure Visibility Wind Dir Wind Speed Gust Speed Precip Events Conditions
12:53 AM 43.0 °F 36.4 °F 39.9 °F 89% 30.11 in 10.0 mi East 12.7 mph 20.7 mph N/A   Overcast
1:21 AM 42.1 °F 35.7 °F 39.0 °F 89% 30.09 in 10.0 mi East 11.5 mph - N/A   Overcast
1:53 AM 43.0 °F 36.0 °F 39.9 °F 89% 30.06 in 10.0 mi East 13.8 mph - N/A   Overcast
2:53 AM 43.0 °F 35.4 °F 39.9 °F 89% 30.07 in 10.0 mi East 16.1 mph 20.7 mph N/A   Overcast
3:53 AM 43.0 °F 36.4 °F 39.9 °F 89% 30.08 in 10.0 mi ENE 12.7 mph - N/A   Overcast
4:21 AM 43.0 °F 35.7 °F 37.9 °F 82% 30.09 in 10.0 mi ENE 15.0 mph 25.3 mph N/A   Overcast
4:53 AM 43.0 °F 37.7 °F 37.9 °F 82% 30.11 in 10.0 mi ENE 9.2 mph - N/A   Overcast
5:53 AM 43.0 °F 37.7 °F 37.9 °F 82% 30.10 in 10.0 mi ENE 9.2 mph - N/A   Overcast
6:42 AM 43.0 °F 36.8 °F 36.0 °F 76% 30.10 in 10.0 mi ENE 11.5 mph - N/A   Overcast
6:53 AM 43.0 °F 36.0 °F 35.1 °F 74% 30.10 in 10.0 mi ENE 13.8 mph - N/A   Overcast
7:53 AM 44.1 °F 38.6 °F 33.1 °F 65% 30.13 in 10.0 mi ENE 10.4 mph - N/A   Overcast
8:53 AM 45.0 °F 38.9 °F 32.0 °F 60% 30.14 in 10.0 mi East 12.7 mph 19.6 mph N/A   Overcast
9:53 AM 45.0 °F 38.5 °F 33.1 °F 63% 30.17 in 10.0 mi ENE 13.8 mph 21.9 mph N/A   Overcast
10:04 AM 45.0 °F 38.5 °F 33.1 °F 63% 30.17 in 10.0 mi East 13.8 mph - N/A   Overcast
10:53 AM 45.0 °F 36.6 °F 34.0 °F 65% 30.15 in 10.0 mi ENE 21.9 mph 27.6 mph N/A   Overcast
11:44 AM 46.9 °F - 34.0 °F 61% 30.13 in 10.0 mi ENE 16.1 mph 26.5 mph N/A   Overcast
11:53 AM 48.0 °F - 34.0 °F 58% 30.13 in 10.0 mi ENE 13.8 mph 24.2 mph N/A   Overcast
12:53 PM 52.0 °F - 34.0 °F 50% 30.12 in 10.0 mi East 13.8 mph 26.5 mph N/A   Overcast
1:53 PM 51.1 °F - 33.1 °F 50% 30.13 in 10.0 mi ENE 12.7 mph 24.2 mph N/A   Overcast
2:53 PM 50.0 °F - 32.0 °F 50% 30.12 in 10.0 mi ENE 13.8 mph 24.2 mph N/A   Overcast
3:53 PM 50.0 °F - 30.0 °F 46% 30.14 in 10.0 mi ENE 12.7 mph - N/A   Overcast
4:53 PM 48.9 °F - 28.9 °F 46% 30.13 in 10.0 mi ENE 12.7 mph - N/A   Overcast
5:53 PM 48.0 °F - 27.0 °F 44% 30.12 in 10.0 mi ENE 13.8 mph 23.0 mph N/A   Overcast
6:40 PM 46.9 °F - 28.9 °F 50% 30.11 in 10.0 mi ENE 16.1 mph - N/A   Overcast
6:53 PM 46.9 °F - 28.9 °F 50% 30.11 in 10.0 mi ENE 8.1 mph - N/A   Overcast
7:53 PM 46.0 °F 40.2 °F 30.0 °F 54% 30.11 in 10.0 mi NE 12.7 mph 18.4 mph N/A   Overcast
8:53 PM 46.0 °F 43.1 °F 30.9 °F 56% 30.12 in 10.0 mi ENE 5.8 mph - N/A   Overcast
9:53 PM 46.9 °F - 30.9 °F 54% 30.13 in 10.0 mi East 6.9 mph - N/A   Overcast
10:53 PM 46.0 °F 43.1 °F 32.0 °F 58% 30.16 in 10.0 mi East 5.8 mph - N/A   Overcast
11:30 PM 46.9 °F - 32.0 °F 56% 30.15 in 10.0 mi NE 5.8 mph - N/A   Overcast
11:53 PM 46.9 °F - 32.0 °F 56% 30.14 in 10.0 mi East 4.6 mph - N/A   Overcast